2021-022R (47947 NORAD) Tracking and Keplerian Element Data

This shows tracking and keplerian element data for the satellite.

Feedback or suggestion? Click here.




ElementValue
Catalog47947
Name2021-022R
Epoch Orbit428
Epoch Day110.96196507
Epoch Year2021
RAAN14.2975
Inclination97.5605
Eccentricity0.001918
Argument of Perigee137.1692
Mean Anonmoly351.4086
Mean Motion15.06502419
Decay Rate4.93E-06
L11 47947U 21022R 21110.96196507 .00000493 00000-0 37420-4 0 9992
L22 47947 97.5605 14.2975 0019180 137.1692 351.4086 15.06502419 4285

Live tracking and technical data element details for 2021-022R (NORAD 47947). 2021-022R can be tracked NOW for your location showing map with azimuth and elevation plus other details from your city location.

Track the satellite on the map from your city or location and see movement details for azimuth, elevation, latitude, longitude, range, height, and movement on the map or in text.







IsCatalogInMostPopularTable: catalog: 47947, numindb: 48
Update: records affected: 1



GetName: 47947 2021-022R

Hit Count: updated at: Mon, 21 Jun 2021 04:45:20 GMT